Temp
14 14 14 14 14 13 13 13 13 13 13 13 12 12 12 12 11 11 11 11 11 10 10 10 9 9 9 9 9 9 9 9 8 8 8 8 7 7 7 7 7 6 6 6 6 6 6 6 5 5 5 5 5 5 4 4 4 4 4 4 4 4 4 4 4 4 3 3 3
14 14 14 14 13 13 13 13 13 13 13 12 12 12 12 12 12 11 11 10 10 10 10 9 9 9 9 9 9 9 9 8 8 8 8 7 7 7 7 7 6 6 6 6 6 6 6 6 5 5 5 5 5 5 5 4 4 4 4 4 4 4 4 4 4 3 3 3 3
14 14 14 13 13 13 13 13 13 12 12 12 12 12 12 12 11 11 11 10 10 10 10 9 9 9 9 9 9 8 8 8 8 8 8 7 7 7 7 7 6 6 6 6 6 6 6 6 5 5 5 5 5 5 5 4 4 4 4 4 4 4 4 4 3 3 3 3 2
14 14 13 13 13 13 13 13 13 12 12 12 12 12 12 11 11 11 10 10 10 10 10 9 9 9 9 9 9 8 8 8 8 8 8 7 7 7 7 6 6 6 6 6 6 6 6 6 5 5 5 5 5 5 5 4 4 4 4 4 4 4 4 3 3 3 3 2 2
14 14 14 14 14 14 13 13 13 13 12 12 12 12 11 11 11 10 10 10 10 10 9 9 9 9 9 9 8 8 8 8 8 8 7 7 7 7 7 6 6 6 6 6 6 6 6 5 5 5 5 5 5 5 5 4 4 4 4 4 4 4 3 3 3 3 2 2 2
14 14 14 14 14 13 13 13 13 13 12 12 12 11 11 11 10 10 10 10 10 10 9 9 9 9 9 9 8 8 8 8 8 7 7 7 7 7 7 6 6 6 6 6 6 6 5 5 5 5 5 5 5 5 4 4 4 4 4 4 4 3 3 3 3 2 2 2 2
14 14 14 13 13 13 13 13 13 13 12 12 12 11 11 11 10 10 10 10 10 9 9 9 9 9 9 9 8 8 8 8 8 7 7 7 7 7 7 6 6 6 6 6 6 6 5 5 5 5 5 5 5 4 4 4 4 4 4 4 3 3 3 3 2 2 2 2 2
14 14 14 13 13 13 13 13 13 12 12 12 11 11 11 11 11 10 10 10 10 9 9 9 9 9 9 9 8 8 8 8 8 7 7 7 7 7 7 6 6 6 6 6 6 5 5 5 5 5 5 5 4 4 4 4 4 4 4 3 3 3 3 2 2 2 2 2 2
13 13 13 13 13 13 13 13 12 12 12 11 11 11 11 11 11 10 10 10 9 9 9 9 9 9 9 8 8 8 8 8 8 7 7 7 7 7 7 6 6 6 6 6 6 5 5 5 5 5 5 4 4 4 4 4 4 4 3 3 3 2 2 2 2 2 2 2 1
13 13 13 13 13 13 13 12 12 12 12 11 11 11 11 11 11 10 10 10 9 9 9 9 9 9 8 8 8 8 8 8 8 7 7 7 7 7 6 6 6 6 6 6 5 5 5 5 5 5 5 4 4 4 4 4 4 3 3 3 2 2 2 2 2 1 1 1 1
13 13 13 13 13 12 12 12 12 12 12 11 11 11 11 11 10 10 10 10 9 9 9 9 9 9 8 8 8 8 8 8 7 7 7 7 7 7 6 6 6 6 6 6 5 5 5 5 5 5 4 4 4 4 4 4 3 3 3 3 2 2 2 1 1 1 1 0 0
13 13 13 13 12 12 12 12 11 11 11 11 11 11 10 10 10 10 9 9 9 9 9 9 9 8 8 8 8 8 8 8 7 7 7 7 7 7 6 6 6 6 6 6 5 5 5 5 5 5 4 4 4 4 4 3 3 3 2 2 2 2 1 1 1 1 0 0 0
13 13 13 12 12 12 12 12 11 11 11 11 11 11 10 10 10 9 9 9 9 9 9 9 8 8 8 8 8 8 8 7 7 7 7 7 7 7 6 6 6 6 6 6 5 5 5 5 5 5 4 4 4 4 3 3 3 2 2 2 1 1 1 1 1 0 0 -0 0
13 13 12 12 12 12 12 11 11 11 11 11 11 10 10 10 9 9 9 9 9 9 9 8 8 8 8 8 8 8 8 7 7 7 7 7 7 7 6 6 6 6 6 6 6 5 5 5 5 5 4 4 4 3 3 3 2 2 2 1 1 1 1 1 0 0 -0 -0 0
13 13 12 12 12 11 11 11 11 11 11 11 10 10 10 10 9 9 9 9 9 8 8 8 8 8 8 8 8 8 7 7 7 7 7 7 7 7 6 6 6 6 6 6 5 5 5 5 5 4 4 4 3 3 3 2 2 2 1 1 1 1 1 0 0 0 0 0 0
12 12 12 11 11 11 11 11 11 11 11 10 10 10 10 9 9 9 9 9 9 8 8 8 8 8 8 8 8 7 7 7 7 7 7 7 7 6 6 6 6 6 6 6 5 5 5 5 4 4 4 4 3 3 2 2 2 1 1 1 1 1 1 0 0 0 0 0 0
12 12 11 11 11 11 11 11 11 11 10 10 10 10 9 9 9 9 9 9 8 8 8 8 8 8 8 8 7 7 7 7 7 7 7 6 6 6 6 6 6 6 6 5 5 5 5 4 4 4 4 3 3 3 2 2 2 1 1 1 1 1 0 0 0 0 0 0 -0
12 11 11 11 11 11 11 11 11 10 10 10 10 9 9 9 9 9 9 8 8 8 8 8 8 8 8 7 7 7 7 7 7 7 6 6 6 6 6 6 6 6 5 5 5 5 4 4 4 4 3 3 3 2 2 2 2 1 1 1 1 0 0 0 0 0 -0 -0 -1
12 11 11 11 11 11 11 11 11 10 10 10 9 9 9 9 9 9 9 8 8 8 8 8 8 8 7 7 7 7 7 7 6 6 6 6 6 6 6 6 6 6 5 5 5 4 4 4 4 3 3 3 3 2 2 2 1 1 1 1 1 0 0 0 0 0 -0 -1 -1
11 11 11 11 11 11 11 11 10 10 10 9 9 9 9 9 9 9 8 8 8 8 8 8 7 7 7 7 7 7 7 6 6 6 6 6 6 6 6 6 6 6 5 5 5 4 4 4 4 3 3 3 2 2 2 1 1 1 1 1 0 0 0 0 0 -0 -1 -1 -1
11 11 11 11 11 11 11 10 10 10 10 9 9 9 9 9 9 9 8 8 8 8 8 7 7 7 7 7 7 7 6 6 6 6 6 6 6 6 6 5 5 5 5 5 4 4 4 4 3 3 3 2 2 1 1 1 1 1 0 0 0 0 0 0 -0 -0 -1 -1 -1
11 11 11 11 11 11 10 10 10 10 10 10 9 9 9 9 9 8 8 8 8 7 7 7 7 7 7 7 7 6 6 6 6 6 6 6 6 6 5 5 5 5 5 4 4 4 4 3 3 3 2 2 1 1 1 1 1 0 0 0 0 0 -0 -0 -0 -1 -1 -1 -2
11 11 11 11 10 10 10 10 10 10 10 10 9 9 9 9 8 8 8 7 7 7 7 7 7 7 7 7 6 6 6 6 6 6 6 6 6 5 5 5 5 5 4 4 4 4 4 3 3 2 2 2 1 1 1 1 1 0 0 0 0 -0 -0 -0 -1 -1 -1 -1 -2
11 11 11 10 10 10 10 10 10 10 10 10 9 9 9 8 8 8 7 7 7 7 7 7 7 7 7 6 6 6 6 6 6 6 6 6 5 5 5 5 5 5 4 4 4 4 3 3 2 2 2 2 1 1 1 1 0 0 0 0 0 -0 -0 -0 -1 -1 -1 -2 -2
11 11 10 10 10 9 9 9 10 10 10 9 9 9 8 8 8 7 7 7 7 7 7 7 7 7 6 6 6 6 6 6 6 6 5 5 5 5 5 5 4 4 4 4 4 3 3 3 2 2 2 2 1 1 1 1 0 0 0 0 -0 -0 -0 -1 -1 -1 -2 -2 -2
11 10 10 10 9 9 9 9 10 10 10 9 8 8 8 8 7 7 7 7 7 7 7 7 7 6 6 6 6 6 6 6 5 5 5 5 5 5 5 4 4 4 4 3 3 3 3 2 2 2 2 2 1 1 1 1 0 0 0 0 -0 -0 -1 -1 -1 -1 -2 -2 -2
10 10 10 9 9 9 9 9 10 9 9 8 8 8 8 7 7 7 7 7 7 7 7 7 6 6 6 6 6 6 5 5 5 5 5 5 5 5 4 4 4 4 3 3 3 3 3 2 2 2 2 1 1 1 1 1 0 0 0 -0 -0 -1 -1 -1 -1 -1 -2 -2 -2
10 10 10 9 9 9 9 9 9 9 8 8 8 8 7 7 7 7 7 7 7 7 7 6 6 6 6 6 6 5 5 5 5 5 5 5 4 4 4 4 4 3 3 3 3 3 2 2 2 2 2 1 1 1 1 0 0 0 -0 -0 -0 -1 -1 -1 -1 -1 -2 -2 -2
10 10 9 9 9 9 9 9 9 8 8 8 8 7 7 7 7 7 7 7 7 7 7 6 6 6 6 6 5 5 5 5 5 5 5 4 4 4 4 4 3 3 3 3 3 2 2 2 2 2 1 1 1 1 1 0 0 0 -0 -0 -1 -1 -1 -1 -1 -2 -2 -2 -2
10 9 9 9 9 9 9 9 8 8 8 8 7 7 7 7 7 7 7 7 7 6 6 6 6 6 6 5 5 5 5 5 5 5 4 4 4 4 4 3 3 3 3 3 2 2 2 2 2 1 1 1 1 1 1 0 0 0 -0 -0 -1 -1 -1 -1 -2 -2 -2 -2 -2
9 9 9 9 9 8 8 8 8 8 8 7 7 7 7 7 7 7 6 6 6 6 6 6 6 6 5 5 5 5 5 5 4 4 4 4 4 4 3 3 3 3 3 3 2 2 2 2 2 1 1 1 1 1 1 0 0 -0 -0 -0 -1 -1 -1 -1 -1 -1 -2 -2 -2
9 9 9 9 8 8 8 8 8 8 7 7 7 7 7 7 6 6 6 6 6 6 6 6 5 5 5 5 5 5 4 4 4 4 4 4 4 3 3 3 3 3 3 2 2 2 2 2 1 1 1 1 1 1 0 0 0 -0 -0 -1 -1 -1 -1 -1 -2 -2 -2 -2 -2
9 9 9 8 8 8 8 8 8 8 7 7 7 7 7 6 6 6 5 6 6 6 6 5 5 5 5 5 5 4 4 4 4 4 4 4 4 3 3 3 3 3 3 2 2 2 2 2 1 1 1 1 1 1 0 0 0 -0 -0 -1 -1 -1 -1 -2 -2 -2 -2 -2 -2
8 8 8 8 8 8 8 8 8 8 7 7 7 7 6 6 6 5 5 5 6 5 5 5 5 5 5 5 4 4 4 4 4 4 4 4 4 3 3 3 3 3 2 2 2 2 2 2 1 1 1 1 1 1 0 0 -0 -0 -0 -1 -1 -1 -1 -2 -2 -2 -2 -2 -2
8 8 8 8 8 8 8 8 8 7 7 7 7 6 6 6 5 5 5 5 5 5 5 5 5 5 4 4 4 4 4 4 4 4 4 4 3 3 3 3 3 3 2 2 2 2 2 2 1 1 1 1 1 1 0 0 -0 -0 -1 -1 -1 -1 -1 -2 -2 -2 -2 -2 -2
8 8 8 8 8 8 8 8 8 7 7 7 7 6 6 5 5 5 5 5 5 5 5 5 5 4 4 4 4 4 4 4 4 4 4 3 3 3 3 3 3 3 2 2 2 2 2 2 1 1 1 1 1 1 0 0 -0 -0 -1 -1 -1 -1 -1 -2 -2 -2 -2 -2 -2
8 8 8 8 8 8 8 8 8 7 7 7 6 6 5 5 5 5 5 5 5 5 5 5 4 4 4 4 4 4 4 4 4 4 3 3 3 3 3 3 3 3 2 2 2 2 2 2 1 1 1 1 1 1 0 0 -0 -0 -1 -1 -1 -1 -1 -2 -2 -2 -2 -2 -2
8 8 8 8 8 8 8 8 8 7 7 6 6 5 5 5 5 5 5 5 5 5 5 4 4 4 4 4 4 4 4 4 4 3 3 3 3 3 3 3 3 2 2 2 2 2 2 2 1 1 1 1 1 1 0 0 -0 -0 -1 -1 -1 -1 -1 -2 -2 -2 -2 -2 -2
8 8 8 8 8 8 8 8 7 7 7 6 6 5 5 5 5 5 5 5 5 5 4 4 4 4 4 4 4 4 4 4 3 3 3 3 3 3 3 3 3 2 2 2 2 2 2 2 2 1 1 1 1 1 0 0 -0 -0 -1 -1 -1 -1 -1 -2 -2 -2 -2 -2 -2
8 8 8 8 8 8 7 7 7 7 6 6 6 5 5 5 5 5 5 5 4 4 4 4 4 4 3 3 3 3 3 3 3 3 3 3 3 3 3 3 3 2 2 2 2 2 2 2 2 1 1 1 1 1 0 -0 -0 -1 -1 -1 -1 -1 -1 -1 -2 -2 -2 -2 -2
8 8 8 8 7 7 7 7 6 6 6 6 5 5 5 5 5 5 5 4 4 4 4 4 3 3 3 3 3 3 3 3 3 3 3 3 3 3 3 3 3 2 2 2 2 2 2 2 2 1 1 1 1 1 0 -0 -1 -1 -1 -1 -1 -1 -1 -1 -2 -2 -2 -2 -2
Height
833 834 835 835 836 836 837 838 839 840 841 842 843 844 845 846 848 849 850 851 852 853 853 854 855 856 856 857 857 858 858 858 859 859 860 860 861 861 862 862 862 862 863 863 863 863 863 863 863 863 863 863 863 862 862 862 862 862 862 862 862 861 861 861 861 861 861 860 860
833 833 834 835 835 836 837 838 839 840 841 842 843 844 845 846 848 849 850 851 852 853 853 854 855 856 856 857 857 858 858 859 859 860 860 861 861 861 862 862 862 862 862 862 863 863 863 863 863 863 863 863 862 862 862 861 861 861 861 861 861 861 861 860 860 860 860 860 859
831 832 833 834 835 836 836 837 838 839 841 842 843 844 845 846 848 848 850 851 852 853 853 854 855 856 856 857 857 858 858 859 860 860 861 861 861 862 862 862 862 862 862 862 862 862 862 862 862 862 862 862 862 861 861 861 861 861 861 860 860 860 860 860 859 859 859 859 859
830 831 832 833 833 834 835 836 837 838 840 841 842 844 845 846 847 848 849 850 851 852 853 854 855 856 856 857 858 858 859 859 860 860 861 861 861 862 862 862 862 862 862 862 862 862 862 862 862 862 861 861 861 861 860 860 860 860 860 860 860 859 859 859 859 858 858 858 858
829 830 831 831 832 833 834 835 836 837 839 840 841 843 844 846 846 848 848 850 851 852 853 853 854 855 856 857 858 858 859 859 860 860 861 861 861 861 861 861 861 861 861 861 861 861 861 861 861 861 861 861 860 860 860 860 859 859 859 859 859 859 858 858 858 858 857 857 857
827 828 829 830 831 832 833 834 835 836 838 839 840 842 843 844 846 847 848 849 850 851 852 853 854 855 856 857 857 858 859 859 859 860 860 860 860 860 861 861 861 861 861 861 861 861 860 860 860 860 860 860 860 859 859 859 859 859 858 858 858 858 858 857 857 857 857 856 856
825 827 828 829 830 831 832 833 835 836 837 838 840 841 842 844 845 846 847 848 849 850 851 852 853 854 855 856 857 857 858 858 858 859 859 859 859 859 860 860 860 860 860 860 860 860 860 860 860 859 859 859 859 859 859 858 858 858 858 858 857 857 857 856 856 856 856 856 855
824 825 827 828 829 830 831 833 834 836 837 838 840 841 842 844 845 846 847 848 848 850 851 852 853 854 854 855 856 856 857 857 857 858 858 858 858 858 859 859 859 859 859 859 859 859 859 859 859 859 858 858 858 858 858 858 858 858 857 857 857 856 856 856 856 855 855 855 855
824 825 826 828 829 830 832 833 835 836 838 839 841 842 843 844 845 846 847 847 848 850 851 851 852 853 854 854 855 855 856 856 857 857 857 857 858 858 858 858 858 858 858 858 858 858 858 858 858 858 858 858 858 857 857 857 857 857 857 856 856 856 856 855 855 855 855 854 854
824 825 827 828 830 831 833 834 836 837 839 840 842 843 844 845 846 846 847 848 849 850 851 851 852 853 853 854 854 855 855 856 856 856 857 857 857 857 858 858 858 858 858 857 857 857 857 857 857 857 857 857 857 857 857 856 856 856 856 856 856 855 855 855 855 854 854 854 854
824 826 827 829 830 832 833 835 836 838 840 841 842 843 844 845 846 847 848 849 849 850 851 851 852 852 853 853 854 854 855 855 856 856 856 856 856 857 857 857 857 857 857 857 856 856 856 856 856 856 856 856 856 856 856 856 856 856 855 855 855 855 855 854 854 854 854 853 853
825 826 828 829 831 832 833 835 836 838 839 841 842 843 844 846 847 848 848 849 850 850 851 851 852 852 852 853 853 854 854 854 855 855 855 856 856 856 856 856 856 856 856 856 856 856 856 855 855 855 856 856 855 855 855 855 855 855 855 855 855 855 854 854 854 853 853 853 852
825 826 828 829 831 832 833 834 835 837 838 839 841 842 843 845 846 847 848 849 850 850 851 851 851 852 852 852 853 853 853 854 854 854 855 855 855 855 855 856 856 855 855 855 855 855 855 855 855 855 855 855 855 855 854 854 854 854 854 854 854 854 854 853 853 853 852 852 851
824 826 827 829 830 831 832 833 834 835 836 837 839 840 841 843 844 846 847 848 849 850 851 851 851 852 852 852 852 853 853 853 853 854 854 854 854 854 855 855 855 855 855 854 854 854 854 854 854 854 854 854 854 854 854 854 853 853 853 853 853 853 853 853 852 852 851 851 850
823 825 827 828 829 831 832 832 833 834 835 836 837 838 840 841 843 844 846 847 848 849 850 850 851 851 851 852 852 852 852 852 853 853 853 853 853 854 854 854 854 854 854 854 853 853 853 853 853 853 853 853 853 853 853 853 853 853 853 853 853 852 852 852 851 851 850 850 849
822 824 825 827 829 830 832 833 833 834 835 836 837 838 839 841 842 843 845 846 847 848 848 849 850 850 851 851 851 851 851 852 852 852 852 852 853 853 853 853 853 853 853 853 853 853 853 852 852 852 852 852 852 852 852 852 852 852 852 852 852 851 851 851 850 850 849 849 848
821 823 824 826 828 830 832 833 835 835 836 836 837 838 839 840 841 843 843 845 845 846 847 848 848 849 850 850 850 851 851 851 851 851 851 851 851 852 852 852 852 852 852 852 852 852 852 851 851 851 851 851 851 851 851 851 851 851 851 851 851 850 850 850 849 849 848 848 847
820 822 823 825 827 829 832 834 836 837 838 838 838 839 840 841 841 842 843 844 844 845 846 847 847 848 848 849 849 849 850 850 850 850 851 851 850 851 851 851 851 851 851 851 851 851 851 850 850 850 850 850 850 850 850 850 850 850 850 850 850 849 849 848 848 848 847 846 846
819 820 822 824 826 827 829 832 834 836 838 839 839 840 840 841 841 842 843 843 844 845 845 846 847 847 848 848 848 848 849 849 849 849 850 850 849 849 849 850 850 850 849 849 849 849 849 849 849 849 849 849 849 849 849 849 849 849 849 849 848 848 848 848 847 847 846 846 845
817 819 821 822 823 825 826 828 831 834 836 837 838 839 840 840 841 841 842 843 844 845 846 846 847 847 847 847 848 848 848 848 848 849 849 849 849 848 848 848 848 848 848 848 848 848 848 848 848 848 848 848 848 848 848 848 848 848 848 848 847 847 847 847 846 846 845 845 844
817 818 819 820 821 822 823 825 828 831 833 835 837 838 838 839 840 841 842 843 844 845 846 846 847 847 847 847 847 847 847 847 848 848 848 848 848 848 847 847 847 847 847 847 847 847 847 847 847 847 847 847 847 847 847 848 847 847 847 847 846 846 846 846 845 845 844 844 843
817 818 819 820 821 822 823 824 826 829 831 833 835 837 838 839 840 841 842 843 843 844 845 846 846 847 847 846 846 846 846 846 846 847 847 847 846 846 846 846 846 846 846 846 846 846 846 846 846 846 846 846 846 847 847 847 847 846 846 846 846 845 845 845 845 844 844 843 843
817 819 820 821 822 823 824 825 826 827 830 832 834 836 838 839 840 841 841 842 842 843 844 845 846 846 846 846 846 846 845 845 845 845 845 845 845 845 845 845 845 845 845 845 845 845 845 845 845 845 845 846 846 846 846 846 846 846 845 845 845 845 844 844 844 843 843 842 842
817 819 820 822 823 824 825 826 826 827 829 831 833 836 837 838 839 840 841 841 841 842 843 843 844 845 845 845 845 844 844 844 844 844 844 844 844 844 844 844 844 844 844 844 844 844 844 844 844 844 845 845 845 845 845 845 845 845 845 844 844 844 844 843 843 842 842 841 841
817 818 820 822 823 824 825 826 827 827 828 831 833 835 836 837 838 839 840 840 841 841 842 842 843 843 843 843 843 843 843 843 843 843 843 843 843 843 843 843 843 843 843 843 843 843 843 843 843 844 844 844 844 844 844 844 844 844 844 844 844 843 843 842 842 841 841 840 840
816 818 819 821 822 823 824 825 826 827 828 830 832 834 835 836 837 838 839 839 840 840 841 841 842 842 842 842 842 842 842 842 842 842 841 841 841 842 842 842 842 842 842 842 842 842 842 842 843 843 843 843 843 843 843 843 843 843 843 843 843 842 842 841 841 840 840 839 839
815 817 818 820 821 823 824 825 825 826 827 829 831 833 834 836 836 837 838 838 839 840 840 841 841 841 841 841 841 841 841 841 841 841 840 840 840 840 840 841 841 841 841 841 841 841 841 842 842 842 842 842 842 841 841 841 841 842 842 842 842 841 841 840 840 839 839 838 838
815 816 818 819 821 822 823 824 824 825 827 829 831 832 833 835 836 836 837 838 839 839 840 840 840 840 840 840 840 840 840 840 840 839 839 839 839 839 839 839 840 840 840 840 840 840 841 841 841 841 841 841 841 841 841 841 841 841 841 841 840 840 840 839 839 838 838 837 837
814 816 817 819 820 821 822 823 824 825 827 828 830 832 833 834 835 836 836 837 838 838 839 839 839 839 839 839 839 839 839 839 838 838 838 838 838 838 838 838 838 839 839 839 839 840 840 840 840 840 840 840 840 840 840 840 840 840 840 839 839 839 838 838 838 837 837 836 836
814 815 817 818 819 820 822 823 824 825 827 828 830 831 832 833 834 835 836 837 837 838 838 838 838 838 838 838 838 838 838 838 837 837 837 837 837 837 837 837 838 838 838 838 838 839 839 839 839 839 839 839 839 839 839 839 839 838 838 838 838 838 837 837 836 836 836 835 835
814 815 816 818 819 820 821 823 824 825 827 828 830 831 832 833 833 834 835 836 836 836 836 836 837 837 837 837 837 837 837 836 836 836 836 836 836 836 836 836 836 837 837 837 838 838 838 838 838 838 838 838 838 838 838 838 838 837 837 837 837 837 836 836 836 835 835 834 834
814 815 816 817 819 820 821 823 824 825 827 828 829 830 831 832 832 833 834 835 835 835 835 835 835 836 836 836 836 836 836 835 835 835 834 834 834 835 835 835 835 836 836 836 837 837 837 837 837 837 837 837 837 837 837 836 836 836 836 836 836 835 835 835 834 834 834 833 833
813 815 816 817 819 820 822 823 824 825 826 828 828 829 830 831 832 833 833 834 834 834 834 834 834 834 834 834 835 835 834 834 834 833 833 833 833 833 834 834 834 835 835 835 836 836 836 836 836 836 836 836 836 836 835 835 835 835 835 835 834 834 834 834 833 833 833 832 832
813 815 816 817 819 820 821 823 824 825 826 827 828 828 829 830 831 831 832 833 833 833 833 833 833 833 833 833 833 833 833 833 832 832 832 832 832 833 833 833 833 834 834 834 834 834 835 834 834 834 834 834 834 834 834 834 834 834 833 833 833 833 833 833 832 832 832 831 831
813 815 816 818 819 820 821 823 824 825 825 826 827 827 828 829 830 830 831 831 831 831 831 831 831 832 832 832 832 832 832 831 831 831 831 831 831 831 832 832 832 833 833 833 833 833 833 833 833 833 833 833 833 833 833 833 832 832 832 832 832 832 832 832 831 831 831 830 830
813 815 816 818 819 820 821 822 823 824 825 825 826 826 827 828 829 830 830 830 830 830 830 830 830 831 831 831 831 831 830 830 830 830 830 830 830 830 831 831 831 831 832 832 832 832 832 832 832 832 832 832 832 831 831 831 831 831 831 831 831 831 830 830 830 830 829 829 828
814 815 816 818 819 820 821 822 822 823 824 824 825 826 827 827 828 828 829 829 829 829 829 829 829 829 829 830 829 829 829 829 828 828 829 829 829 829 829 830 830 830 830 831 831 831 831 831 831 831 831 830 830 830 830 830 830 830 829 829 829 829 829 829 829 829 828 828 827
815 816 817 818 819 820 820 821 822 822 823 823 824 825 826 827 827 828 828 828 828 828 828 828 828 828 828 828 828 828 828 827 827 827 827 828 828 828 828 828 829 829 829 829 829 829 829 829 829 829 829 829 828 828 828 828 828 828 828 828 828 828 828 828 828 827 827 827 826
815 816 817 818 818 819 820 820 821 821 822 823 824 825 825 826 826 826 827 827 827 827 827 827 827 827 827 827 827 827 826 826 826 826 826 826 826 827 827 827 827 827 828 828 828 828 828 828 828 828 827 827 827 827 827 827 827 827 826 826 826 826 826 826 826 826 826 825 825
815 816 817 817 818 819 819 820 820 821 822 823 823 824 825 825 825 825 826 826 826 826 826 826 826 826 826 826 825 825 825 825 825 825 825 825 825 825 825 826 826 826 826 826 826 826 826 826 826 826 826 825 825 825 825 825 825 825 825 825 825 824 824 825 825 825 824 824 824
815 816 817 817 818 818 819 820 820 821 822 822 823 823 824 824 824 825 825 825 825 825 825 825 825 825 825 824 824 824 824 824 824 824 824 824 824 824 824 824 824 825 825 825 825 825 825 825 825 824 824 824 823 823 823 824 824 823 823 823 823 823 823 823 823 823 823 823 823
Wind_Speed
25 25 25 25 25 26 26 26 25 25 25 26 26 25 24 22 21 19 18 16 14 13 13 12 11 10 9 8 6 5 4 3 2 2 2 2 1 1 1 1 2 2 2 2 3 4 5 6 7 7 8 8 8 7 5 5 5 5 6 6 7 8 9 9 9 9 9 9 9
25 25 26 26 25 25 25 25 25 25 26 26 25 24 23 21 20 18 17 15 14 13 12 11 10 9 8 7 6 5 4 3 2 2 1 1 1 1 2 2 2 2 2 3 4 5 5 6 7 8 8 9 8 7 6 5 6 6 7 7 8 9 9 10 9 9 9 9 9
25 25 26 26 26 25 25 25 25 26 26 26 25 23 22 20 19 18 16 15 13 12 11 10 10 9 8 7 6 5 3 2 1 1 0 1 1 2 2 2 2 2 3 3 4 5 6 7 8 8 9 9 9 7 6 6 6 7 7 8 9 9 9 9 8 8 8 8 8
25 26 27 27 27 26 26 25 26 26 26 25 24 23 21 20 19 17 16 14 12 11 11 10 10 10 8 7 6 4 3 2 1 0 1 1 2 2 2 3 3 3 3 4 5 6 7 7 8 9 9 9 8 7 7 7 7 8 8 9 9 9 9 8 8 7 7 7 7
26 27 27 27 27 26 26 26 25 26 25 25 24 23 22 20 19 16 14 13 12 12 11 11 11 10 8 7 5 4 3 2 1 1 1 2 2 3 3 3 4 4 4 5 6 7 7 8 8 9 9 8 8 7 7 8 8 8 8 8 8 8 7 7 7 7 7 7 7
27 27 27 27 27 27 26 25 25 25 25 25 25 24 22 20 18 15 13 13 12 13 13 12 11 10 8 6 5 4 4 3 2 2 2 3 3 3 4 4 4 5 5 6 6 7 8 8 9 9 8 8 8 8 8 8 8 8 8 8 7 7 7 7 7 7 7 7 8
27 27 27 28 27 27 26 25 25 25 25 25 25 24 22 19 16 14 13 13 13 14 14 12 11 9 8 7 6 5 4 4 3 3 3 3 4 4 4 5 5 5 6 7 7 7 8 8 8 8 8 8 8 8 8 8 8 8 8 7 7 7 7 7 7 8 8 9 9
27 27 27 27 27 27 26 25 25 25 26 25 24 22 19 17 15 14 13 14 15 15 14 12 10 9 8 7 6 6 5 4 4 4 4 4 4 5 5 5 6 6 7 7 8 8 8 8 8 8 8 8 8 8 8 8 8 8 8 8 7 7 7 8 8 9 9 10 10
26 26 26 26 26 26 25 25 26 26 25 24 21 19 16 14 14 14 14 15 15 14 13 12 10 9 8 7 7 6 5 5 4 5 5 5 5 5 6 6 7 7 8 8 8 8 8 8 8 8 8 8 8 8 8 8 8 8 8 8 8 7 8 8 9 9 10 11 11
26 26 26 26 26 26 26 26 25 24 23 20 18 15 13 13 13 14 14 15 14 13 12 11 10 9 8 7 6 6 5 4 4 5 5 5 5 6 6 7 7 8 8 8 8 8 8 8 8 8 8 8 8 8 8 9 9 9 8 8 8 8 8 8 8 9 10 11 12
26 26 26 26 26 26 26 25 23 21 19 16 14 13 13 13 13 13 14 14 13 13 11 10 9 8 7 7 6 5 4 4 4 5 5 6 6 6 7 8 8 9 9 9 9 8 8 8 8 8 8 8 8 9 9 9 9 9 8 8 8 8 7 7 8 9 11 12 13
26 26 26 26 27 26 25 24 21 18 15 14 13 13 13 13 13 13 13 13 13 11 10 9 8 7 7 6 5 4 4 4 5 5 5 6 6 7 8 8 9 9 10 9 9 9 8 8 8 9 9 9 9 9 9 9 9 8 8 8 8 7 7 8 9 10 12 13 15
27 27 27 27 26 25 23 21 18 16 15 14 14 14 14 14 14 14 13 13 11 10 9 8 7 7 6 5 5 4 4 5 5 5 6 6 7 7 8 9 10 10 10 10 10 9 9 9 9 9 9 9 9 9 8 8 8 8 7 8 7 7 8 9 11 13 13 14 15
28 28 28 27 25 23 21 19 17 16 16 16 16 16 16 16 15 15 13 12 10 10 9 8 7 6 5 5 4 4 4 5 5 5 6 7 7 8 9 10 11 11 12 11 11 10 10 10 9 9 9 9 8 8 8 8 7 7 8 8 8 8 10 12 13 14 14 15 16
29 29 28 26 24 22 20 18 17 17 17 18 18 17 17 17 16 15 13 11 10 9 8 7 7 6 5 4 4 4 5 5 6 6 7 7 8 9 10 11 12 12 13 13 12 11 11 10 9 9 9 8 8 8 7 8 8 8 8 9 10 11 12 13 14 14 14 15 17
30 29 27 25 23 20 18 18 17 18 18 18 18 18 18 17 16 15 13 12 11 10 9 7 6 5 5 4 4 5 5 6 6 7 7 8 9 10 11 12 13 13 14 14 13 12 11 10 9 9 9 8 8 8 8 8 9 9 10 10 11 12 13 13 13 14 14 16 17
30 29 26 24 21 19 18 17 17 17 18 18 18 18 18 17 16 15 14 12 11 10 9 8 6 5 5 5 5 5 5 6 7 7 8 9 9 10 11 12 13 14 15 15 14 13 11 9 9 9 9 9 8 9 9 10 10 11 11 11 12 12 12 12 13 14 15 16 16
30 28 26 23 21 19 18 16 16 16 17 17 17 17 17 16 15 15 14 13 12 10 9 8 6 6 5 5 5 5 6 6 7 7 8 9 9 10 10 11 12 13 14 14 13 12 10 9 10 10 10 10 10 10 11 11 11 11 10 10 11 11 11 12 13 14 15 15 16
30 28 26 23 22 20 19 17 16 16 16 17 17 16 16 16 15 14 14 13 12 10 8 7 6 6 6 6 6 6 6 6 7 7 8 8 8 8 9 9 10 11 12 12 11 11 10 10 10 10 10 10 10 11 11 11 10 10 9 9 9 10 11 12 13 14 15 15 15
30 28 26 24 23 22 21 19 18 18 17 17 17 17 16 16 15 14 14 13 11 9 8 7 6 6 6 6 6 6 6 6 6 6 6 7 7 7 8 8 9 10 10 10 10 10 10 11 11 11 11 11 11 10 10 9 8 8 8 8 9 10 12 13 14 14 15 15 14
30 28 26 25 24 23 23 22 21 19 18 18 17 17 17 16 15 14 13 12 11 9 8 7 7 6 6 6 6 6 6 6 5 5 6 6 7 7 8 9 9 9 9 9 9 10 11 11 11 11 11 10 9 8 8 7 7 7 7 8 9 11 12 13 13 14 14 14 14
29 27 25 24 24 23 23 22 21 20 18 17 17 17 17 16 15 14 13 12 11 9 8 7 7 6 6 6 6 5 5 5 5 6 6 7 8 9 9 10 10 9 9 8 9 10 11 12 12 11 10 9 8 7 7 7 7 6 7 8 9 10 12 12 13 13 13 13 13
27 26 24 24 23 23 23 22 21 20 18 17 17 17 17 16 15 14 13 12 10 8 7 7 7 7 6 6 6 6 6 6 7 7 8 9 9 10 10 10 9 9 8 9 10 11 12 12 11 11 9 8 7 7 7 7 6 6 7 8 9 10 11 11 12 12 13 12 12
27 25 24 24 23 22 22 21 20 19 17 17 18 18 17 16 15 14 13 11 9 8 7 7 7 7 7 7 7 7 7 8 8 9 9 10 10 10 10 9 9 8 9 10 11 12 12 12 11 10 9 8 8 7 7 6 5 6 6 7 9 9 10 10 11 11 12 12 12
27 26 25 25 24 23 22 21 20 18 17 18 19 18 18 17 16 14 12 10 9 8 8 8 8 8 7 7 7 8 8 9 9 9 10 10 10 10 9 9 8 9 9 10 12 12 12 12 11 9 8 8 7 7 6 5 4 5 6 7 8 9 9 9 10 10 11 11 11
27 27 26 25 24 23 22 21 19 17 17 19 20 19 18 17 15 13 11 9 8 8 8 8 8 8 8 8 8 9 9 9 9 9 10 10 9 9 9 9 9 9 10 11 12 12 12 11 10 9 8 8 7 6 4 4 4 4 6 7 7 8 8 9 9 9 10 10 11
28 27 26 25 24 23 22 20 19 18 19 21 20 19 18 16 14 11 10 8 8 9 9 9 9 9 9 9 9 9 9 9 9 9 10 9 9 9 8 8 9 10 11 12 12 12 12 11 10 9 8 8 7 6 4 4 4 5 6 7 7 7 8 8 9 9 10 10 10
28 27 26 25 24 23 22 21 20 20 21 21 20 18 16 14 12 10 9 9 9 10 10 10 10 10 10 10 10 9 9 9 9 9 9 9 9 8 8 8 9 10 11 12 12 11 11 10 9 9 8 8 7 6 5 4 5 5 6 6 7 7 7 8 8 9 9 10 10
28 28 26 25 24 23 23 21 21 22 22 21 19 17 14 12 11 9 9 10 11 12 12 11 11 11 10 10 9 9 9 9 9 9 9 8 8 8 8 8 9 10 11 11 11 11 10 10 9 9 8 8 7 6 5 5 6 6 7 7 7 7 7 7 8 9 9 10 11
29 28 26 25 24 24 23 23 23 22 21 19 17 15 13 11 10 9 10 11 12 13 13 12 11 10 10 9 9 9 8 8 8 8 8 8 8 8 8 8 9 10 10 11 10 10 10 9 9 9 8 8 7 7 6 7 7 8 8 7 7 7 7 7 8 9 10 10 11
28 27 26 25 24 24 24 23 23 21 20 17 15 13 11 10 9 9 11 12 13 13 13 12 11 10 10 10 9 9 8 8 8 8 8 8 8 8 8 8 9 10 10 10 10 9 9 9 9 9 9 9 8 8 8 8 9 9 9 8 7 7 7 7 7 8 10 10 11
28 26 25 24 24 24 24 23 21 20 17 15 13 12 10 9 9 10 12 13 14 13 12 11 10 10 10 9 9 9 9 8 8 8 8 8 8 8 8 8 9 10 10 10 9 9 9 9 9 9 9 9 9 9 9 10 10 10 10 9 8 7 7 7 7 8 9 10 11
27 25 24 24 25 25 24 22 20 17 15 13 12 11 10 9 10 12 13 14 14 12 11 10 10 9 9 9 9 9 9 9 9 8 8 8 8 8 8 9 9 9 9 9 9 9 9 9 10 10 10 10 10 10 10 11 12 12 11 10 9 8 8 7 8 8 9 10 11
26 25 25 25 25 24 22 20 17 15 14 12 11 10 10 11 12 13 14 14 13 12 11 10 10 9 9 9 9 9 9 9 8 8 8 7 8 8 9 9 9 9 9 9 9 9 9 10 10 11 11 11 11 11 12 13 13 13 12 11 10 9 9 8 8 8 9 10 11
25 25 25 25 24 22 20 18 16 14 12 11 10 10 11 12 14 14 14 13 12 11 10 10 10 9 9 10 10 9 9 9 8 8 7 7 8 8 9 9 9 9 9 9 9 9 10 10 11 11 12 12 12 13 14 15 15 14 13 12 12 11 10 9 9 9 9 10 11
26 26 25 24 22 20 18 16 14 12 11 11 11 11 12 14 14 14 13 12 11 11 10 10 10 9 9 10 10 9 9 9 8 8 8 8 9 9 9 9 9 9 9 9 9 10 10 11 11 12 13 13 14 14 15 16 16 16 15 14 13 12 11 10 10 9 10 10 11
25 25 24 22 20 18 16 14 13 12 11 11 12 13 14 14 14 13 13 12 11 10 10 10 10 10 10 10 10 10 9 9 9 9 9 9 10 10 10 10 10 10 10 10 10 10 11 11 12 13 14 14 15 16 17 17 17 17 16 15 15 14 13 12 11 10 10 10 10
24 23 21 20 18 16 14 13 13 13 12 12 13 14 14 14 13 12 12 11 11 10 10 10 10 10 10 10 10 10 10 9 10 10 10 10 11 11 11 11 11 10 10 10 11 11 11 12 12 13 14 15 16 17 18 18 19 18 18 17 16 15 14 13 12 11 11 10 10
22 20 18 17 16 15 14 14 14 14 13 13 14 14 14 13 12 12 11 11 11 11 11 11 11 11 11 10 10 10 10 10 10 11 11 11 12 12 12 12 12 11 11 11 11 12 12 12 13 14 15 16 17 18 19 19 20 20 19 19 18 17 16 15 14 13 12 11 11
19 18 16 15 15 15 15 15 14 13 13 13 13 13 13 12 11 11 11 11 12 12 12 12 12 11 11 11 11 10 11 11 11 12 12 13 13 13 13 13 13 12 12 12 13 13 13 13 14 15 16 17 18 19 20 20 21 21 21 20 20 19 18 17 16 14 13 12 11
17 16 15 15 15 15 14 14 13 12 12 12 12 12 11 11 11 11 11 12 12 12 13 13 12 12 12 11 11 11 11 12 12 13 13 13 14 14 14 14 14 13 13 13 14 14 14 15 15 16 18 19 19 20 21 21 22 22 22 22 22 21 20 19 17 16 15 14 13
Wind_Direction
201 200 199 199 197 195 195 195 195 195 194 192 189 188 188 187 185 181 177 172 168 165 164 164 164 163 164 167 173 178 178 172 156 130 103 80 58 12 340 326 320 320 318 316 316 315 319 325 333 337 339 337 334 330 324 319 315 313 311 309 309 307 306 305 305 304 301 299 298
203 203 202 200 199 198 197 197 197 197 195 194 192 191 190 188 184 177 171 167 165 165 164 164 167 169 171 173 176 178 175 164 146 120 96 60 351 318 308 301 302 302 303 305 309 310 312 317 325 329 329 328 325 319 311 306 305 303 302 301 300 301 301 302 302 300 298 296 295
204 204 203 202 200 199 198 198 197 196 195 193 193 192 190 186 179 171 166 165 166 167 168 169 173 176 177 174 172 170 166 156 138 115 76 330 298 291 288 288 290 290 295 299 303 306 308 312 318 321 321 319 316 311 303 299 299 298 297 296 297 298 299 301 300 297 294 292 291
206 205 204 203 203 202 201 201 199 197 195 193 192 190 187 181 174 168 166 167 170 173 176 178 179 179 178 174 168 164 163 161 159 218 281 282 278 276 277 280 281 284 288 294 298 301 305 308 312 315 315 313 310 304 299 297 296 295 295 295 296 298 299 299 296 292 288 286 287
205 205 205 205 205 205 204 204 200 197 194 192 189 185 180 175 171 169 170 172 176 179 181 182 180 177 174 171 170 169 173 180 200 237 258 264 265 268 272 275 276 279 284 289 294 297 300 305 308 311 311 308 304 298 296 295 294 293 293 294 295 297 297 293 288 283 280 280 282
204 204 205 205 205 204 204 203 200 195 191 188 184 179 175 172 172 173 176 178 180 181 181 180 177 174 172 173 178 182 186 192 205 224 241 250 257 260 265 268 272 278 282 286 289 292 296 301 306 307 306 303 298 294 293 293 293 292 292 292 293 294 291 283 277 274 274 275 278
203 202 203 203 203 202 200 198 194 189 185 182 178 175 173 173 176 179 182 182 180 178 176 176 175 174 176 179 183 186 189 195 207 222 235 245 251 256 261 266 271 276 280 283 285 288 294 300 303 303 301 298 294 292 292 292 291 291 291 292 290 288 283 275 272 272 274 276 280
201 200 200 200 199 198 195 191 185 181 178 176 174 174 175 178 181 183 183 181 177 174 173 174 175 178 181 183 184 186 190 199 214 229 239 245 251 257 263 268 274 277 279 280 282 287 292 298 301 300 297 294 292 291 291 291 290 291 291 290 286 281 276 273 274 277 280 283 286
195 195 196 194 193 190 187 182 177 174 172 172 173 176 180 183 184 183 179 175 173 172 172 174 177 180 182 184 185 188 195 208 225 238 244 249 255 261 267 271 276 278 278 279 282 287 292 296 297 296 294 292 290 289 290 291 291 292 290 287 282 276 273 274 278 283 288 292 293
188 188 187 185 183 181 177 173 171 170 171 172 175 179 182 184 183 179 175 172 171 172 173 175 177 179 181 184 187 194 204 223 238 247 251 256 261 266 271 275 278 280 279 280 283 287 290 293 293 292 291 292 290 290 291 292 292 292 289 284 279 275 273 276 282 289 295 299 301
183 182 180 177 175 173 170 167 167 169 172 174 177 179 179 179 177 174 171 170 171 172 174 175 177 179 182 185 191 202 217 235 247 253 258 262 267 271 274 277 280 281 282 282 283 285 287 289 290 291 293 293 292 292 291 291 291 289 287 283 280 277 276 281 289 296 301 304 308
179 177 175 174 171 168 167 166 167 170 173 175 175 174 173 172 171 170 171 172 174 175 175 176 179 181 184 189 197 212 229 244 252 258 264 269 272 275 278 280 282 283 282 282 281 282 283 286 289 292 292 290 289 288 289 290 291 289 287 283 281 279 282 290 297 302 305 308 313
176 174 173 171 169 168 167 168 169 171 172 173 171 170 169 169 169 171 174 176 177 177 176 177 179 184 189 196 210 225 241 252 260 266 271 275 278 280 282 284 285 285 283 282 280 280 282 285 288 288 287 284 284 285 287 289 290 289 286 283 281 283 288 296 301 304 307 312 316
175 174 172 170 169 170 170 171 171 171 171 170 169 167 167 168 171 174 177 178 178 178 177 178 181 187 195 207 223 240 254 263 268 272 276 280 282 283 285 287 288 287 285 283 281 281 282 283 283 282 281 280 280 282 285 287 287 285 283 282 285 289 295 300 304 308 313 316 318
174 173 173 171 171 172 173 173 172 171 170 169 168 168 168 170 172 174 176 177 178 177 178 180 185 192 202 217 236 253 263 269 273 277 280 282 285 286 288 290 290 288 286 284 282 281 280 279 278 277 275 275 277 280 282 283 283 283 284 287 291 296 301 305 310 315 318 319 317
174 173 173 173 173 174 174 174 172 170 169 169 169 169 170 171 173 174 176 176 177 177 179 183 190 200 213 229 246 257 264 269 273 278 281 283 285 288 291 293 291 288 285 283 280 278 276 274 272 270 271 272 275 278 280 283 285 288 290 294 298 302 306 312 318 320 320 318 315
175 174 173 173 173 174 174 173 172 171 171 170 170 170 171 172 174 175 176 177 178 178 180 184 193 205 219 233 243 252 258 265 270 275 279 282 285 288 290 291 289 286 284 281 279 275 271 267 265 266 269 273 275 278 282 286 290 292 296 300 304 309 315 321 324 322 319 315 312
175 174 173 173 173 172 172 172 172 172 172 171 171 172 173 175 176 178 179 180 180 180 181 186 195 207 220 230 237 244 250 258 265 270 274 278 281 284 286 287 286 284 281 279 275 270 265 261 263 267 270 274 277 281 285 288 292 296 300 306 312 319 325 327 324 320 315 312 311
175 174 173 173 173 172 171 171 172 173 173 172 173 175 177 179 180 181 181 182 181 181 182 188 197 208 217 225 230 236 242 249 256 262 267 271 275 278 281 284 284 283 280 276 269 262 257 258 263 268 272 275 278 282 284 287 292 298 305 313 323 329 330 326 321 316 312 311 311
175 175 174 175 174 172 171 170 170 170 171 173 176 179 181 182 183 183 183 181 179 179 182 192 202 211 218 224 229 233 238 244 251 258 265 270 276 280 284 286 288 288 284 275 265 258 256 259 264 268 270 273 275 278 282 287 293 302 312 323 331 332 328 322 317 313 311 311 311
177 176 176 176 175 173 170 168 167 168 172 176 181 183 184 183 184 183 181 179 177 177 184 198 209 217 223 228 231 235 241 249 257 265 273 279 284 287 290 292 292 291 286 276 265 259 258 260 262 264 266 268 269 274 282 290 299 310 322 331 332 329 324 319 315 313 312 311 310
178 177 177 176 174 171 168 166 167 170 175 180 184 185 184 183 182 180 178 176 175 179 189 203 215 224 229 232 235 241 249 259 269 277 283 288 291 292 293 293 292 288 281 271 262 259 258 257 257 258 259 263 268 277 287 296 306 318 328 331 329 325 321 318 315 313 311 310 308
177 177 176 174 172 169 167 167 169 172 175 180 182 183 182 181 178 176 175 175 176 182 195 210 221 228 234 240 245 252 260 269 275 281 285 289 292 293 293 292 289 283 274 265 260 256 254 252 251 252 256 263 274 285 294 303 314 324 329 329 326 323 320 318 316 313 311 308 307
176 174 173 172 171 170 170 171 172 173 175 179 180 180 179 176 175 174 174 175 179 189 203 215 225 233 240 247 254 260 267 273 277 281 285 288 291 293 292 290 285 277 268 263 259 256 253 250 249 251 258 268 279 290 299 309 320 328 329 326 324 323 322 320 317 314 311 308 306
174 173 172 171 171 171 172 174 174 175 177 178 177 176 174 174 174 174 175 179 187 199 212 220 228 235 243 251 257 263 268 272 276 281 286 289 291 292 291 288 280 270 262 258 256 255 253 252 253 258 266 275 284 292 300 309 320 325 325 324 324 324 323 322 320 317 313 310 307
173 172 171 171 171 172 174 177 177 178 176 174 173 172 172 173 173 175 179 186 198 210 220 226 232 239 246 253 259 264 269 273 278 283 288 291 292 292 289 284 273 263 257 254 253 253 253 255 260 266 274 280 284 287 291 298 308 313 315 318 322 325 326 325 323 321 318 314 311
172 172 171 172 172 175 177 180 179 177 173 171 170 170 171 172 173 177 185 197 212 223 228 233 237 243 249 255 261 266 272 276 281 285 289 291 292 291 287 279 267 258 254 253 253 254 257 261 266 272 276 277 278 278 279 283 290 297 305 312 319 325 329 331 328 326 322 319 315
172 172 172 172 175 178 180 180 177 173 170 168 168 169 170 172 175 183 197 215 228 233 235 236 240 246 251 257 263 269 274 278 282 286 289 291 291 290 285 275 262 256 254 253 254 257 261 266 271 272 273 273 274 275 276 277 280 287 296 307 315 323 330 334 334 331 327 323 319
173 172 172 174 177 180 180 178 173 169 167 167 167 169 171 176 183 195 212 228 236 237 237 239 243 248 254 261 266 271 275 278 282 286 289 288 287 285 279 269 258 254 253 254 256 260 265 269 270 270 269 270 272 273 273 271 273 280 290 301 310 320 328 334 333 331 329 327 323
173 173 174 176 178 179 177 173 169 166 166 166 167 171 176 184 196 211 226 236 238 238 238 241 246 252 259 264 268 271 274 278 283 287 288 285 280 276 269 260 254 252 253 255 258 263 268 269 268 266 266 268 270 270 269 267 269 275 284 294 304 315 325 330 328 330 331 330 326
174 174 175 176 177 175 172 168 166 165 165 167 170 177 185 195 208 223 233 237 237 238 240 245 251 257 262 265 268 271 274 278 282 285 284 281 275 268 261 255 251 250 253 257 262 266 269 268 265 264 265 267 269 269 267 266 267 272 280 289 298 307 317 325 330 332 332 331 327
174 175 176 175 173 169 167 164 164 164 166 170 176 184 194 206 219 231 236 237 237 239 243 249 255 259 263 265 268 271 275 279 281 281 280 276 270 262 255 251 249 250 254 259 265 268 268 266 264 264 265 267 268 267 266 265 266 270 276 284 292 300 309 318 326 330 331 330 328
174 175 174 171 167 164 163 163 164 167 170 176 184 194 206 220 231 235 236 235 237 241 246 253 256 259 261 265 268 272 276 278 279 278 275 270 264 256 250 247 247 250 255 261 266 267 266 264 263 263 264 266 267 267 266 265 265 268 273 279 285 292 300 310 318 324 328 328 328
173 172 170 167 163 162 162 164 167 171 177 186 196 210 224 233 234 233 232 233 237 243 249 254 257 260 263 266 270 273 275 275 275 273 269 262 255 249 245 244 246 251 257 262 265 266 265 263 262 262 264 265 266 266 265 264 264 266 270 274 279 285 291 300 310 317 322 325 325
170 168 165 163 162 162 164 168 173 179 188 198 212 226 234 235 230 228 229 234 240 247 252 255 258 261 265 268 271 273 273 271 268 263 258 253 246 242 241 243 247 252 257 261 264 264 264 263 262 262 262 264 266 266 265 263 263 264 267 271 275 279 285 293 302 310 316 320 323
168 165 162 161 162 165 169 174 180 189 200 212 224 231 231 228 225 227 231 238 245 250 253 256 258 261 264 266 269 270 269 267 263 258 252 247 242 239 239 242 246 251 255 258 261 263 263 262 262 261 261 263 265 266 265 263 263 264 267 269 272 275 279 286 293 301 309 315 319
166 164 163 163 166 170 176 182 191 201 211 221 226 226 224 222 224 229 237 244 249 252 254 256 258 260 262 264 267 267 267 265 261 255 249 244 241 240 240 242 246 250 253 256 259 261 262 262 261 260 260 262 265 265 264 263 263 264 266 268 271 273 276 280 286 294 302 308 314
166 166 167 169 172 178 185 193 202 210 216 221 222 221 221 223 228 236 243 249 252 254 256 257 259 261 263 265 265 265 264 261 257 252 247 244 242 242 243 244 247 250 253 255 257 259 260 261 260 260 260 263 266 266 264 262 262 263 265 268 270 272 273 275 280 286 294 302 308
168 171 174 177 182 187 193 199 205 210 214 216 217 218 222 229 236 243 248 253 256 257 258 259 260 262 263 263 263 262 260 258 255 251 248 246 246 246 246 247 249 251 253 255 256 257 259 260 260 259 260 263 265 266 264 261 260 262 265 268 269 270 271 272 275 280 287 294 301
173 177 181 185 189 193 196 199 202 206 210 213 216 221 229 237 243 249 253 257 258 260 261 261 262 262 262 261 260 259 258 255 253 251 250 249 249 249 250 250 251 253 254 256 257 257 258 259 259 259 259 261 264 264 263 260 259 260 263 266 268 268 269 270 272 275 281 287 294
177 180 184 187 191 194 196 198 201 206 212 217 223 230 238 245 251 255 258 259 260 261 262 262 262 261 260 259 259 259 257 254 252 251 251 252 251 251 251 253 254 255 256 258 258 259 259 260 259 258 258 260 262 263 262 259 257 258 262 266 268 268 267 268 270 272 276 282 287